Tianmu 1-14

operational
NORAD ID: 58648 Int'l Des: 2023-205 Owner: TIANMU Country: CN
LEOCIRCULARRETROGRADESSO

Über Tianmu 1-14

Beschreibung wird geladen...

Live-Position

3D-Globus wird geladen...

Nächste Überflüge

Höhenverlauf

Altitude vs Time

uPlot chart will show altitude changes over time

Zweizeiliger Elementsatz

1 58648U 23205D 26061.63990929 .00007509 00000-0 29707-3 0 9994
2 58648 97.3498 84.1971 0008189 3.3076 356.8215 15.25712499121254
Epoch: 2. März 2026 • Age: 25 hours

Aktueller Status

Höhe 502.4 km
Geschwindigkeit 7.62 km/s
Subsatellitenpunkt 81.42°N, 143.77°E
Startdatum 25. Dez. 2023
Alter 2.1 years
Typ other

Technische Details

Klassifizierung Payload
Masse 50.00 kg
Trockenmasse 50.00 kg
Gesamtmasse 50.00 kg
Länge 1.50 m
Durchmesser 1.00 m
Spannweite 1.50 m
Form Box
Hersteller TIANMU
Bus-Typ Tianmu
Phasenstatus In Orbit
Besitzer/Staat TIANMU/CN

Große Konstellationen

Loading constellations...